,,Stat6,,Stat2,,Stat8,,Stat9,,Stat10,,Wind1,,Wind1,
time,status,PA1M_AVG,status,PR1M_SUM,status,RH1M_AVG,status,SR1M_AVG,status,TA1M_AVG,status,W1dAve1m,status,W1sAve1m,
2007-04-02, 00:00:00,VALID,918.452,VALID,0,VALID,100,VALID,-0.0339617,VALID,20.6249,VALID,256,VALID,0.0165551,
2007-04-02, 00:01:00,VALID,918.45,VALID,0,VALID,100,VALID,-0.0509425,VALID,20.6214,VALID,256,VALID,0.0299479,
2007-04-02, 00:02:00,VALID,918.432,VALID,0,VALID,100,VALID,-0.0339617,VALID,20.6184,VALID,256,VALID,0.00173611,
2007-04-02, 00:03:00,VALID,918.407,VALID,0,VALID,100,VALID,-0.0849042,VALID,20.6322,VALID,256,VALID,0,
2007-04-02, 00:04:00,VALID,918.38,VALID,0,VALID,100,VALID,-0.0849042,VALID,20.6249,VALID,256,VALID,0.0166667,
2007-04-02, 00:05:00,VALID,918.367,VALID,0,VALID,100,VALID,-0.0339617,VALID,20.6214,VALID,256,VALID,0,
2007-04-02, 00:06:00,VALID,918.339,VALID,0,VALID,100,VALID,-0.0339617,VALID,20.6382,VALID,256,VALID,0,
2007-04-02, 00:07:00,VALID,918.32,VALID,0,VALID,100,VALID,-0.0679233,VALID,20.6347,VALID,256,VALID,0.0228795,
2007-04-02, 00:08:00,VALID,918.294,VALID,0,VALID,100,VALID,-0.101885,VALID,20.6452,VALID,256,VALID,0.00234375,
2007-04-02, 00:09:00,VALID,918.261,VALID,0,VALID,100,VALID,-0.0509425,VALID,20.6514,VALID,256,VALID,0.062314,
2007-04-02, 00:10:00,VALID,918.247,VALID,0,VALID,100,VALID,-0.0509425,VALID,20.6506,VALID,256,VALID,0.0806108,
2007-04-02, 00:11:00,VALID,918.219,VALID,0,VALID,100,VALID,-0.101885,VALID,20.6971,VALID,256,VALID,0.00744048,
2007-04-02, 00:12:00,VALID,918.208,VALID,0,VALID,100,VALID,-0.0509425,VALID,20.7063,VALID,256,VALID,0.0815305,
2007-04-02, 00:13:00,VALID,918.177,VALID,0,VALID,100,VALID,-0.0679233,VALID,20.7131,VALID,257,VALID,0.097561,
2007-04-02, 00:14:00,VALID,918.168,VALID,0,VALID,100,VALID,0,VALID,20.7153,VALID,258,VALID,0.305778,
2007-04-02, 00:15:00,VALID,918.154,VALID,0,VALID,100,VALID,0.0169808,VALID,20.699,VALID,259,VALID,0.357887,
2007-04-02, 00:16:00,VALID,918.126,VALID,0,VALID,100,VALID,0,VALID,20.6955,VALID,259,VALID,0.335175,
2007-04-02, 00:17:00,VALID,918.111,VALID,0,VALID,100,VALID,0.0169808,VALID,20.7118,VALID,279,VALID,0.494855,
2007-04-02, 00:18:00,VALID,918.085,VALID,0,VALID,100,VALID,0.0169808,VALID,20.705,VALID,342,VALID,0.653888,
2007-04-02, 00:19:00,VALID,918.048,VALID,0,VALID,100,VALID,0.0169808,VALID,20.6763,VALID,52,VALID,0.882068,
2007-04-02, 00:20:00,VALID,918.046,VALID,0,VALID,100,VALID,0,VALID,20.6241,VALID,55,VALID,0.896949,
2007-04-02, 00:21:00,VALID,918.046,VALID,0,VALID,100,VALID,0.0169808,VALID,20.5847,VALID,58,VALID,0.815739,
2007-04-02, 00:22:00,VALID,918.037,VALID,0,VALID,100,VALID,0.0339617,VALID,20.5587,VALID,64,VALID,0.719444,
2007-04-02, 00:23:00,VALID,918.019,VALID,0,VALID,100,VALID,0.0339617,VALID,20.5365,VALID,65,VALID,0.72309,
2007-04-02, 00:24:00,VALID,918.012,VALID,0,VALID,100,VALID,0.0169808,VALID,20.51,VALID,67,VALID,0.57279,
2007-04-02, 00:25:00,VALID,918.005,VALID,0,VALID,100,VALID,0.0339617,VALID,20.4943,VALID,67,VALID,0.632626,
2007-04-02, 00:26:00,VALID,917.983,VALID,0,VALID,100,VALID,0,VALID,20.4978,VALID,67,VALID,0.487645,
2007-04-02, 00:27:00,VALID,917.964,VALID,0,VALID,100,VALID,0.0679233,VALID,20.4743,VALID,67,VALID,0.460938,
2007-04-02, 00:28:00,VALID,917.954,VALID,0.2,VALID,100,VALID,0.0339617,VALID,20.4681,VALID,67,VALID,0.68045,
2007-04-02, 00:29:00,VALID,917.937,VALID,0,VALID,100,VALID,-0.101885,VALID,20.4732,VALID,67,VALID,0.743963,
2007-04-02, 00:30:00,VALID,917.917,VALID,0,VALID,100,VALID,-0.0679233,VALID,20.4599,VALID,72,VALID,0.760174,
2007-04-02, 00:31:00,VALID,917.893,VALID,0,VALID,100,VALID,-0.101885,VALID,20.4537,VALID,72,VALID,0.587391,
2007-04-02, 00:32:00,VALID,917.878,VALID,0,VALID,100,VALID,-0.0849042,VALID,20.4342,VALID,79,VALID,0.69029,
2007-04-02, 00:33:00,VALID,917.86,VALID,0,VALID,100,VALID,-0.0849042,VALID,20.4147,VALID,86,VALID,0.848611,
2007-04-02, 00:34:00,VALID,917.852,VALID,0,VALID,100,VALID,-0.101885,VALID,20.3953,VALID,86,VALID,0.628348,
2007-04-02, 00:35:00,VALID,917.827,VALID,0,VALID,100,VALID,-0.118866,VALID,20.3888,VALID,86,VALID,0.62035,
2007-04-02, 00:36:00,VALID,917.802,VALID,0,VALID,100,VALID,-0.0849042,VALID,20.3693,VALID,87,VALID,0.350977,
2007-04-02, 00:37:00,VALID,917.771,VALID,0,VALID,100,VALID,-0.0849042,VALID,20.3658,VALID,87,VALID,0.422828,
2007-04-02, 00:38:00,VALID,917.741,VALID,0,VALID,100,VALID,-0.101885,VALID,20.3725,VALID,87,VALID,0.319754,
2007-04-02, 00:39:00,VALID,917.732,VALID,0,VALID,100,VALID,-0.118866,VALID,20.3823,VALID,87,VALID,0.176736,
2007-04-02, 00:40:00,VALID,917.71,VALID,0,VALID,100,VALID,-0.0849042,VALID,20.4018,VALID,87,VALID,0.0861111,
2007-04-02, 00:41:00,VALID,917.699,VALID,0,VALID,100,VALID,-0.101885,VALID,20.3985,VALID,87,VALID,0,
2007-04-02, 00:42:00,VALID,917.681,VALID,0,VALID,100,VALID,-0.101885,VALID,20.4077,VALID,87,VALID,0,
2007-04-02, 00:43:00,VALID,917.662,VALID,0,VALID,100,VALID,-0.0849042,VALID,20.4245,VALID,87,VALID,0.0602134,
2007-04-02, 00:44:00,VALID,917.635,VALID,0,VALID,100,VALID,-0.0849042,VALID,20.4245,VALID,87,VALID,0.0413491,
2007-04-02, 00:45:00,VALID,917.623,VALID,0,VALID,100,VALID,-0.101885,VALID,20.431,VALID,87,VALID,0.102564,
2007-04-02, 00:46:00,VALID,917.612,VALID,0,VALID,100,VALID,-0.118866,VALID,20.4282,VALID,87,VALID,0.00236192,
2007-04-02, 00:47:00,VALID,917.601,VALID,0,VALID,100,VALID,-0.101885,VALID,20.4212,VALID,87,VALID,0,
2007-04-02, 00:48:00,VALID,917.583,VALID,0,VALID,100,VALID,-0.101885,VALID,20.4147,VALID,87,VALID,0,
2007-04-02, 00:49:00,VALID,917.549,VALID,0,VALID,100,VALID,-0.101885,VALID,20.4018,VALID,87,VALID,0,
2007-04-02, 00:50:00,VALID,917.539,VALID,0,VALID,100,VALID,-0.101885,VALID,20.3823,VALID,87,VALID,0,
2007-04-02, 00:51:00,VALID,917.515,VALID,0,VALID,100,VALID,-0.0679233,VALID,20.3526,VALID,87,VALID,0,
2007-04-02, 00:52:00,VALID,917.497,VALID,0,VALID,100,VALID,-0.101885,VALID,20.3331,VALID,87,VALID,0,
2007-04-02, 00:53:00,VALID,917.476,VALID,0,VALID,100,VALID,-0.101885,VALID,20.3271,VALID,87,VALID,0,
2007-04-02, 00:54:00,VALID,917.444,VALID,0,VALID,100,VALID,-0.0679233,VALID,20.3066,VALID,87,VALID,0.0556891,
2007-04-02, 00:55:00,VALID,917.445,VALID,0,VALID,100,VALID,-0.0679233,VALID,20.3106,VALID,87,VALID,0.323946,
2007-04-02, 00:56:00,VALID,917.429,VALID,0,VALID,100,VALID,-0.0849042,VALID,20.3139,VALID,87,VALID,0.214558,
2007-04-02, 00:57:00,VALID,917.419,VALID,0,VALID,100,VALID,-0.0679233,VALID,20.3336,VALID,87,VALID,0.280208,
2007-04-02, 00:58:00,VALID,917.416,VALID,0,VALID,100,VALID,-0.0679233,VALID,20.3291,VALID,87,VALID,0.202363,
2007-04-02, 00:59:00,VALID,917.39,VALID,0,VALID,100,VALID,-0.0849042,VALID,20.3296,VALID,87,VALID,0.407522,
2007-04-02, 01:00:00,VALID,917.398,VALID,0,VALID,100,VALID,-0.0509425,VALID,20.3064,VALID,87,VALID,0.2375,
2007-04-02, 01:01:00,VALID,917.38,VALID,0,VALID,100,VALID,-0.0849042,VALID,20.3064,VALID,87,VALID,0.109184,
2007-04-02, 01:02:00,VALID,917.369,VALID,0,VALID,100,VALID,-0.0849042,VALID,20.3174,VALID,87,VALID,0.120561,
2007-04-02, 01:03:00,VALID,917.35,VALID,0,VALID,100,VALID,-0.101885,VALID,20.3074,VALID,87,VALID,0.0794271,
2007-04-02, 01:04:00,VALID,917.33,VALID,0,VALID,100,VALID,-0.101885,VALID,20.2939,VALID,87,VALID,0.0328125,
2007-04-02, 01:05:00,VALID,917.324,VALID,0,VALID,100,VALID,-0.118866,VALID,20.3009,VALID,87,VALID,0,
2007-04-02, 01:06:00,VALID,917.304,VALID,0,VALID,100,VALID,-0.101885,VALID,20.3201,VALID,87,VALID,0,
2007-04-02, 01:07:00,VALID,917.295,VALID,0,VALID,100,VALID,-0.0509425,VALID,20.3263,VALID,87,VALID,0,
2007-04-02, 01:08:00,VALID,917.283,VALID,0,VALID,100,VALID,-0.0849042,VALID,20.3368,VALID,87,VALID,0,
2007-04-02, 01:09:00,VALID,917.261,VALID,0,VALID,100,VALID,-0.0679233,VALID,20.3266,VALID,87,VALID,0,
2007-04-02, 01:10:00,VALID,917.241,VALID,0,VALID,100,VALID,-0.0679233,VALID,20.3261,VALID,87,VALID,0,
2007-04-02, 01:11:00,VALID,917.212,VALID,0,VALID,100,VALID,-0.101885,VALID,20.3201,VALID,87,VALID,0,
2007-04-02, 01:12:00,VALID,917.186,VALID,0,VALID,100,VALID,-0.118866,VALID,20.3011,VALID,87,VALID,0.0316134,
2007-04-02, 01:13:00,VALID,917.178,VALID,0,VALID,100,VALID,-0.0509425,VALID,20.2647,VALID,87,VALID,0.0559304,
2007-04-02, 01:14:00,VALID,917.166,VALID,0,VALID,100,VALID,0.0169808,VALID,20.2472,VALID,85,VALID,0.39383,
2007-04-02, 01:15:00,VALID,917.153,VALID,0,VALID,100,VALID,0.0339617,VALID,20.2242,VALID,78,VALID,0.577567,
2007-04-02, 01:16:00,VALID,917.144,VALID,0,VALID,100,VALID,0.0509425,VALID,20.2077,VALID,76,VALID,0.57286,
2007-04-02, 01:17:00,VALID,917.122,VALID,0,VALID,100,VALID,0.0339617,VALID,20.1818,VALID,76,VALID,0.55878,
2007-04-02, 01:18:00,VALID,917.097,VALID,0,VALID,100,VALID,0,VALID,20.179,VALID,76,VALID,0.5627,
2007-04-02, 01:19:00,VALID,917.078,VALID,0,VALID,100,VALID,0.0169808,VALID,20.1952,VALID,74,VALID,0.589558,
2007-04-02, 01:20:00,VALID,917.055,VALID,0,VALID,100,VALID,0.0169808,VALID,20.1823,VALID,74,VALID,0.49891,
2007-04-02, 01:21:00,VALID,917.053,VALID,0,VALID,100,VALID,0.0169808,VALID,20.166,VALID,74,VALID,0.516602,
2007-04-02, 01:22:00,VALID,917.023,VALID,0,VALID,100,VALID,0.0169808,VALID,20.1531,VALID,74,VALID,0.432884,
2007-04-02, 01:23:00,VALID,917.008,VALID,0,VALID,100,VALID,0,VALID,20.1436,VALID,74,VALID,0.173633,
2007-04-02, 01:24:00,VALID,916.981,VALID,0,VALID,100,VALID,0,VALID,20.1601,VALID,74,VALID,0.215732,
2007-04-02, 01:25:00,VALID,916.973,VALID,0,VALID,100,VALID,0.0169808,VALID,20.1531,VALID,74,VALID,0.153088,
2007-04-02, 01:26:00,VALID,916.961,VALID,0,VALID,100,VALID,-0.0339617,VALID,20.1666,VALID,74,VALID,0.0951172,
2007-04-02, 01:27:00,VALID,916.959,VALID,0,VALID,100,VALID,0.0169808,VALID,20.1828,VALID,74,VALID,0.0172602,
2007-04-02, 01:28:00,VALID,916.958,VALID,0,VALID,100,VALID,-0.0339617,VALID,20.1825,VALID,74,VALID,0.0353516,
2007-04-02, 01:29:00,VALID,916.94,VALID,0,VALID,100,VALID,-0.0169808,VALID,20.1698,VALID,74,VALID,0,
2007-04-02, 01:30:00,VALID,916.937,VALID,0,VALID,100,VALID,0.0169808,VALID,20.1628,VALID,74,VALID,0,
2007-04-02, 01:31:00,VALID,916.934,VALID,0,VALID,100,VALID,0,VALID,20.1433,VALID,74,VALID,0,
2007-04-02, 01:32:00,VALID,916.937,VALID,0,VALID,100,VALID,-0.0339617,VALID,20.1206,VALID,74,VALID,0,
2007-04-02, 01:33:00,VALID,916.938,VALID,0,VALID,100,VALID,-0.0169808,VALID,20.1041,VALID,74,VALID,0,
2007-04-02, 01:34:00,VALID,916.935,VALID,0,VALID,100,VALID,0,VALID,20.1076,VALID,74,VALID,0,
2007-04-02, 01:35:00,VALID,916.923,VALID,0,VALID,100,VALID,-0.0169808,VALID,20.1176,VALID,74,VALID,0,
2007-04-02, 01:36:00,VALID,916.919,VALID,0,VALID,100,VALID,0,VALID,20.1274,VALID,74,VALID,0,
2007-04-02, 01:37:00,VALID,916.892,VALID,0,VALID,100,VALID,0,VALID,20.1081,VALID,74,VALID,0.273983,
2007-04-02, 01:38:00,VALID,916.88,VALID,0,VALID,100,VALID,0.0169808,VALID,20.0657,VALID,74,VALID,0.644336,
2007-04-02, 01:39:00,VALID,916.854,VALID,0,VALID,100,VALID,-0.0169808,VALID,20.0168,VALID,74,VALID,0.774858,
2007-04-02, 01:40:00,VALID,916.828,VALID,0,VALID,100,VALID,-0.0169808,VALID,19.9973,VALID,74,VALID,0.731179,
2007-04-02, 01:41:00,VALID,916.821,VALID,0,VALID,100,VALID,-0.0169808,VALID,19.9811,VALID,74,VALID,0.708789,
2007-04-02, 01:42:00,VALID,916.814,VALID,0,VALID,100,VALID,-0.0339617,VALID,19.9711,VALID,74,VALID,0.581577,
2007-04-02, 01:43:00,VALID,916.79,VALID,0,VALID,100,VALID,-0.0169808,VALID,19.9454,VALID,74,VALID,0.554155,
2007-04-02, 01:44:00,VALID,916.771,VALID,0,VALID,100,VALID,0,VALID,19.9459,VALID,74,VALID,0.523065,
2007-04-02, 01:45:00,VALID,916.765,VALID,0,VALID,100,VALID,-0.0169808,VALID,19.9062,VALID,74,VALID,0.33939,
2007-04-02, 01:46:00,VALID,916.747,VALID,0,VALID,100,VALID,0,VALID,19.8835,VALID,74,VALID,0.482777,
2007-04-02, 01:47:00,VALID,916.723,VALID,0,VALID,100,VALID,-0.0169808,VALID,19.8743,VALID,74,VALID,0.451596,
2007-04-02, 01:48:00,VALID,916.703,VALID,0,VALID,100,VALID,-0.0169808,VALID,19.8348,VALID,74,VALID,0.45484,
2007-04-02, 01:49:00,VALID,916.685,VALID,0,VALID,100,VALID,-0.0339617,VALID,19.8318,VALID,74,VALID,0.440039,
2007-04-02, 01:50:00,VALID,916.677,VALID,0,VALID,100,VALID,-0.0169808,VALID,19.8321,VALID,74,VALID,0.46875,
2007-04-02, 01:51:00,VALID,916.654,VALID,0,VALID,100,VALID,-0.0169808,VALID,19.8258,VALID,82,VALID,0.541606,
2007-04-02, 01:52:00,VALID,916.643,VALID,0,VALID,100,VALID,-0.0169808,VALID,19.8226,VALID,82,VALID,0.56582,
2007-04-02, 01:53:00,VALID,916.636,VALID,0,VALID,100,VALID,0,VALID,19.8159,VALID,82,VALID,0.439546,
2007-04-02, 01:54:00,VALID,916.625,VALID,0,VALID,100,VALID,0,VALID,19.8121,VALID,82,VALID,0.41806,
2007-04-02, 01:55:00,VALID,916.607,VALID,0,VALID,100,VALID,-0.0509425,VALID,19.8189,VALID,97,VALID,0.554688,
2007-04-02, 01:56:00,VALID,916.596,VALID,0,VALID,100,VALID,-0.0339617,VALID,19.8156,VALID,112,VALID,0.663707,
2007-04-02, 01:57:00,VALID,916.585,VALID,0,VALID,100,VALID,0,VALID,19.8321,VALID,119,VALID,0.672057,
2007-04-02, 01:58:00,VALID,916.568,VALID,0,VALID,100,VALID,-0.0169808,VALID,19.8189,VALID,123,VALID,0.801883,
2007-04-02, 01:59:00,VALID,916.551,VALID,0,VALID,100,VALID,-0.0339617,VALID,19.8321,VALID,125,VALID,0.608487,
2007-04-02, 02:00:00,VALID,916.538,VALID,0,VALID,100,VALID,-0.0339617,VALID,19.8348,VALID,138,VALID,0.634807,
2007-04-02, 02:01:00,VALID,916.51,VALID,0,VALID,100,VALID,-0.0169808,VALID,19.8286,VALID,147,VALID,0.692587,
2007-04-02, 02:02:00,VALID,916.509,VALID,0,VALID,100,VALID,-0.0169808,VALID,19.8386,VALID,147,VALID,0.835764,
2007-04-02, 02:03:00,VALID,916.5,VALID,0,VALID,100,VALID,0,VALID,19.8548,VALID,148,VALID,0.616832,
2007-04-02, 02:04:00,VALID,916.478,VALID,0,VALID,100,VALID,-0.0339617,VALID,19.8548,VALID,149,VALID,0.512784,
2007-04-02, 02:05:00,VALID,916.461,VALID,0,VALID,100,VALID,-0.0169808,VALID,19.8775,VALID,146,VALID,0.688988,
2007-04-02, 02:06:00,VALID,916.448,VALID,0,VALID,100,VALID,-0.0169808,VALID,19.8832,VALID,143,VALID,0.639323,
2007-04-02, 02:07:00,VALID,916.428,VALID,0,VALID,100,VALID,0,VALID,19.8865,VALID,145,VALID,0.417259,
2007-04-02, 02:08:00,VALID,916.406,VALID,0,VALID,100,VALID,-0.0169808,VALID,19.893,VALID,145,VALID,0.520089,
2007-04-02, 02:09:00,VALID,916.388,VALID,0,VALID,100,VALID,0,VALID,19.9132,VALID,143,VALID,0.596181,
2007-04-02, 02:10:00,VALID,916.365,VALID,0,VALID,100,VALID,-0.0509425,VALID,19.9095,VALID,143,VALID,0.533296,
2007-04-02, 02:11:00,VALID,916.325,VALID,0,VALID,100,VALID,-0.0339617,VALID,19.8995,VALID,140,VALID,0.288352,
2007-04-02, 02:12:00,VALID,916.306,VALID,0,VALID,100,VALID,0,VALID,19.9157,VALID,135,VALID,0.823331,
2007-04-02, 02:13:00,VALID,916.289,VALID,0,VALID,100,VALID,0,VALID,19.9292,VALID,131,VALID,0.733487,
2007-04-02, 02:14:00,VALID,916.281,VALID,0,VALID,100,VALID,0.101885,VALID,19.9309,VALID,131,VALID,0.423371,
2007-04-02, 02:15:00,VALID,916.266,VALID,0,VALID,100,VALID,0.0509425,VALID,19.9312,VALID,131,VALID,0.524219,
2007-04-02, 02:16:00,VALID,916.246,VALID,0,VALID,100,VALID,0.0509425,VALID,19.9409,VALID,131,VALID,0.515253,
2007-04-02, 02:17:00,VALID,916.226,VALID,0,VALID,100,VALID,0.0849042,VALID,19.9441,VALID,131,VALID,0.532848,
2007-04-02, 02:18:00,VALID,916.224,VALID,0,VALID,100,VALID,0.0679233,VALID,19.9474,VALID,131,VALID,0.250558,
2007-04-02, 02:19:00,VALID,916.206,VALID,0,VALID,100,VALID,0.101885,VALID,19.9469,VALID,131,VALID,0.342226,
2007-04-02, 02:20:00,VALID,916.198,VALID,0,VALID,100,VALID,0.0849042,VALID,19.9536,VALID,137,VALID,0.511719,
2007-04-02, 02:21:00,VALID,916.189,VALID,0,VALID,100,VALID,0.101885,VALID,19.9434,VALID,146,VALID,0.59375,
2007-04-02, 02:22:00,VALID,916.18,VALID,0,VALID,100,VALID,0.101885,VALID,19.9509,VALID,157,VALID,0.590701,
2007-04-02, 02:23:00,VALID,916.176,VALID,0,VALID,100,VALID,0.101885,VALID,19.9501,VALID,153,VALID,0.414244,
2007-04-02, 02:24:00,VALID,916.166,VALID,0,VALID,100,VALID,0.101885,VALID,19.9564,VALID,148,VALID,0.641741,
2007-04-02, 02:25:00,VALID,916.156,VALID,0,VALID,100,VALID,0.0679233,VALID,19.9601,VALID,148,VALID,0.195126,
2007-04-02, 02:26:00,VALID,916.138,VALID,0,VALID,100,VALID,0.101885,VALID,19.9701,VALID,148,VALID,0.272529,
2007-04-02, 02:27:00,VALID,916.122,VALID,0,VALID,100,VALID,0.101885,VALID,19.9828,VALID,148,VALID,0.197129,
2007-04-02, 02:28:00,VALID,916.106,VALID,0,VALID,100,VALID,0.0679233,VALID,19.9863,VALID,148,VALID,0.0186738,
2007-04-02, 02:29:00,VALID,916.089,VALID,0,VALID,100,VALID,-0.0339617,VALID,19.9876,VALID,148,VALID,0,
2007-04-02, 02:30:00,VALID,916.091,VALID,0,VALID,100,VALID,-0.0509425,VALID,19.9841,VALID,148,VALID,0,
2007-04-02, 02:31:00,VALID,916.086,VALID,0,VALID,100,VALID,-0.0339617,VALID,19.9843,VALID,148,VALID,0,
2007-04-02, 02:32:00,VALID,916.073,VALID,0,VALID,100,VALID,-0.0169808,VALID,19.9843,VALID,148,VALID,0,
2007-04-02, 02:33:00,VALID,916.065,VALID,0,VALID,100,VALID,-0.0339617,VALID,19.9848,VALID,148,VALID,0,
2007-04-02, 02:34:00,VALID,916.065,VALID,0,VALID,100,VALID,-0.0509425,VALID,19.9908,VALID,148,VALID,0,
2007-04-02, 02:35:00,VALID,916.059,VALID,0,VALID,100,VALID,-0.0509425,VALID,19.9976,VALID,148,VALID,0,
2007-04-02, 02:36:00,VALID,916.045,VALID,0,VALID,100,VALID,-0.0509425,VALID,20.0011,VALID,148,VALID,0,
2007-04-02, 02:37:00,VALID,916.029,VALID,0,VALID,100,VALID,-0.0169808,VALID,19.9981,VALID,148,VALID,0,
2007-04-02, 02:38:00,VALID,916.025,VALID,0,VALID,100,VALID,-0.0339617,VALID,19.9848,VALID,148,VALID,0,
2007-04-02, 02:39:00,VALID,916.019,VALID,0,VALID,100,VALID,-0.0169808,VALID,19.9716,VALID,148,VALID,0,
2007-04-02, 02:40:00,VALID,916.013,VALID,0,VALID,100,VALID,-0.0339617,VALID,19.9686,VALID,148,VALID,0.0133384,
2007-04-02, 02:41:00,VALID,915.998,VALID,0,VALID,100,VALID,-0.0849042,VALID,19.9489,VALID,148,VALID,0.0874256,
2007-04-02, 02:42:00,VALID,915.976,VALID,0,VALID,100,VALID,-0.0509425,VALID,19.9294,VALID,148,VALID,0.023247,
2007-04-02, 02:43:00,VALID,915.968,VALID,0,VALID,100,VALID,-0.0169808,VALID,19.9329,VALID,148,VALID,0.0215278,
2007-04-02, 02:44:00,VALID,915.948,VALID,0,VALID,100,VALID,-0.0339617,VALID,19.9164,VALID,148,VALID,0,
2007-04-02, 02:45:00,VALID,915.938,VALID,0,VALID,100,VALID,-0.0339617,VALID,19.907,VALID,148,VALID,0,
2007-04-02, 02:46:00,VALID,915.923,VALID,0,VALID,100,VALID,-0.0339617,VALID,19.8937,VALID,148,VALID,0,
2007-04-02, 02:47:00,VALID,915.921,VALID,0,VALID,100,VALID,-0.0169808,VALID,19.894,VALID,148,VALID,0,
2007-04-02, 02:48:00,VALID,915.913,VALID,0,VALID,100,VALID,0,VALID,19.8843,VALID,148,VALID,0,
2007-04-02, 02:49:00,VALID,915.911,VALID,0,VALID,100,VALID,-0.0509425,VALID,19.8905,VALID,148,VALID,0,
2007-04-02, 02:50:00,VALID,915.901,VALID,0,VALID,100,VALID,-0.0339617,VALID,19.8743,VALID,148,VALID,0,
2007-04-02, 02:51:00,VALID,915.88,VALID,0,VALID,100,VALID,-0.0339617,VALID,19.8613,VALID,148,VALID,0,
2007-04-02, 02:52:00,VALID,915.873,VALID,0,VALID,100,VALID,-0.0509425,VALID,19.8226,VALID,148,VALID,0,
2007-04-02, 02:53:00,VALID,915.851,VALID,0,VALID,100,VALID,-0.0849042,VALID,19.7966,VALID,148,VALID,0.0522017,
2007-04-02, 02:54:00,VALID,915.832,VALID,0,VALID,100,VALID,-0.0509425,VALID,19.7642,VALID,148,VALID,0.331214,
2007-04-02, 02:55:00,VALID,915.837,VALID,0,VALID,100,VALID,0.0169808,VALID,19.7083,VALID,147,VALID,0.458147,
2007-04-02, 02:56:00,VALID,915.823,VALID,0,VALID,100,VALID,-0.0509425,VALID,19.6893,VALID,147,VALID,0.205611,
2007-04-02, 02:57:00,VALID,915.823,VALID,0,VALID,100,VALID,0,VALID,19.6631,VALID,147,VALID,0.0417878,
2007-04-02, 02:58:00,VALID,915.807,VALID,0,VALID,100,VALID,-0.0339617,VALID,19.6342,VALID,147,VALID,0,
2007-04-02, 02:59:00,VALID,915.786,VALID,0,VALID,100,VALID,-0.0339617,VALID,19.6145,VALID,147,VALID,0.201705,
2007-04-02, 03:00:00,VALID,915.757,VALID,0,VALID,100,VALID,-0.0339617,VALID,19.5818,VALID,70,VALID,0.620117,
2007-04-02, 03:01:00,VALID,915.742,VALID,0,VALID,100,VALID,-0.0169808,VALID,19.566,VALID,38,VALID,1.01601,
2007-04-02, 03:02:00,VALID,915.737,VALID,0,VALID,100,VALID,-0.0339617,VALID,19.5433,VALID,38,VALID,0.888021,
2007-04-02, 03:03:00,VALID,915.742,VALID,0,VALID,100,VALID,-0.0679233,VALID,19.5136,VALID,37,VALID,0.622768,
2007-04-02, 03:04:00,VALID,915.726,VALID,0,VALID,100,VALID,-0.0339617,VALID,19.5106,VALID,36,VALID,0.384673,
2007-04-02, 03:05:00,VALID,915.722,VALID,0,VALID,100,VALID,-0.0169808,VALID,19.5269,VALID,36,VALID,0.0724085,
2007-04-02, 03:06:00,VALID,915.707,VALID,0,VALID,100,VALID,0,VALID,19.5271,VALID,36,VALID,0.227983,
2007-04-02, 03:07:00,VALID,915.701,VALID,0,VALID,100,VALID,-0.0169808,VALID,19.5433,VALID,36,VALID,0.331676,
2007-04-02, 03:08:00,VALID,915.698,VALID,0,VALID,100,VALID,-0.0169808,VALID,19.5331,VALID,36,VALID,0.452431,
2007-04-02, 03:09:00,VALID,915.673,VALID,0,VALID,100,VALID,-0.0339617,VALID,19.5301,VALID,36,VALID,0.294727,
2007-04-02, 03:10:00,VALID,915.68,VALID,0,VALID,100,VALID,-0.0339617,VALID,19.5239,VALID,36,VALID,0.12872,
2007-04-02, 03:11:00,VALID,915.666,VALID,0,VALID,100,VALID,-0.0339617,VALID,19.5371,VALID,36,VALID,0.143043,
2007-04-02, 03:12:00,VALID,915.675,VALID,0,VALID,100,VALID,-0.0509425,VALID,19.5533,VALID,36,VALID,0.266927,
2007-04-02, 03:13:00,VALID,915.687,VALID,0,VALID,100,VALID,-0.0339617,VALID,19.5466,VALID,36,VALID,0.228016,
2007-04-02, 03:14:00,VALID,915.703,VALID,0,VALID,100,VALID,-0.0339617,VALID,19.5306,VALID,36,VALID,0.237926,
2007-04-02, 03:15:00,VALID,915.708,VALID,0,VALID,100,VALID,-0.0169808,VALID,19.5241,VALID,36,VALID,0.373264,
2007-04-02, 03:16:00,VALID,915.703,VALID,0,VALID,100,VALID,0,VALID,19.5299,VALID,36,VALID,0.403773,
2007-04-02, 03:17:00,VALID,915.704,VALID,0,VALID,100,VALID,0,VALID,19.5491,VALID,36,VALID,0.745164,
2007-04-02, 03:18:00,VALID,915.701,VALID,0,VALID,100,VALID,-0.0339617,VALID,19.5728,VALID,33,VALID,0.641335,
2007-04-02, 03:19:00,VALID,915.714,VALID,0,VALID,100,VALID,0,VALID,19.595,VALID,33,VALID,0.418155,
2007-04-02, 03:20:00,VALID,915.727,VALID,0,VALID,100,VALID,-0.0339617,VALID,19.6117,VALID,33,VALID,0.192587,
2007-04-02, 03:21:00,VALID,915.731,VALID,0,VALID,100,VALID,-0.0509425,VALID,19.6179,VALID,33,VALID,0.132227,
2007-04-02, 03:22:00,VALID,915.718,VALID,0,VALID,100,VALID,-0.0339617,VALID,19.6344,VALID,33,VALID,0.136364,
2007-04-02, 03:23:01,VALID,915.693,VALID,0,VALID,100,VALID,-0.0339617,VALID,19.6604,VALID,33,VALID,0.28032,
2007-04-02, 03:24:00,VALID,915.673,VALID,0,VALID,100,VALID,-0.0509425,VALID,19.6564,VALID,35,VALID,0.453852,
2007-04-02, 03:25:00,VALID,915.667,VALID,0,VALID,100,VALID,-0.0339617,VALID,19.6731,VALID,40,VALID,0.558183,
2007-04-02, 03:26:00,VALID,915.677,VALID,0,VALID,100,VALID,-0.0509425,VALID,19.6634,VALID,41,VALID,0.277716,
2007-04-02, 03:27:00,VALID,915.664,VALID,0,VALID,100,VALID,-0.0169808,VALID,19.6599,VALID,41,VALID,0.161222,
2007-04-02, 03:28:01,VALID,915.658,VALID,0,VALID,100,VALID,0,VALID,19.6666,VALID,41,VALID,0.0265997,
2007-04-02, 03:29:00,VALID,915.652,VALID,0,VALID,100,VALID,0.0169808,VALID,19.6469,VALID,41,VALID,0.0145597,
2007-04-02, 03:30:00,VALID,915.646,VALID,0,VALID,100,VALID,-0.0679233,VALID,19.6506,VALID,41,VALID,0,
2007-04-02, 03:31:00,VALID,915.643,VALID,0,VALID,100,VALID,-0.0339617,VALID,19.6666,VALID,41,VALID,0.159489,
2007-04-02, 03:32:00,VALID,915.642,VALID,0,VALID,100,VALID,-0.0849042,VALID,19.6893,VALID,41,VALID,0.545387,
2007-04-02, 03:33:00,VALID,915.621,VALID,0,VALID,100,VALID,-0.0339617,VALID,19.725,VALID,41,VALID,0.53869,
2007-04-02, 03:34:01,VALID,915.619,VALID,0,VALID,100,VALID,-0.0169808,VALID,19.7218,VALID,41,VALID,0.432639,
2007-04-02, 03:35:00,VALID,915.623,VALID,0,VALID,100,VALID,0,VALID,19.711,VALID,41,VALID,0.303125,
2007-04-02, 03:36:00,VALID,915.63,VALID,0,VALID,100,VALID,0,VALID,19.6823,VALID,41,VALID,0.424237,
2007-04-02, 03:37:00,VALID,915.629,VALID,0,VALID,100,VALID,0,VALID,19.6534,VALID,55,VALID,0.524009,
2007-04-02, 03:38:00,VALID,915.645,VALID,0,VALID,100,VALID,0,VALID,19.6172,VALID,56,VALID,0.549006,
2007-04-02, 03:39:00,VALID,915.64,VALID,0,VALID,100,VALID,0,VALID,19.6112,VALID,56,VALID,0.623547,
2007-04-02, 03:40:01,VALID,915.644,VALID,0,VALID,100,VALID,0,VALID,19.5783,VALID,56,VALID,0.451029,
2007-04-02, 03:41:01,VALID,915.64,VALID,0,VALID,100,VALID,-0.0339617,VALID,19.5693,VALID,56,VALID,0.481027,